Weather History for Champaign, IL

Change the Weather History Date:

Friday, August 10, 2012

  Actual Average Record
Temperature  
Mean Temperature 67 °F 73 °F  
Max Temperature 79 °F 83 °F 94 °F (2010)
Min Temperature 54 °F 62 °F 54 °F (2012)
Degree Days  
Heating Degree Days 0 0  
Month to date heating degree days 0 0  
Since 1 June heating degree days 14 19  
Since 1 July heating degree days 0 2  
Cooling Degree Days 2 8  
Month to date cooling degree days 119 80  
Year to date cooling degree days 1061 677  
Since 1 June cooling degree days 835 585  
Growing Degree Days 18 (Base 50)    
Moisture  
Dew Point 58 °F    
Average Humidity 68    
Maximum Humidity 93    
Minimum Humidity 42    
Precipitation  
Precipitation 0.00 in 0.10 in 0.63 in (2010)
Month to date precipitation 0.16 0.89  
Year to date precipitation 12.42 24.56  
Sea Level Pressure  
Sea Level Pressure 29.88 in    
Wind  
Wind Speed 12 mph (NNW)    
Max Wind Speed 22 mph    
Max Gust Speed 29 mph    
Visibility 9 miles    
Events      
T = Trace of Precipitation, MM = Missing Value Source: NWS Daily Summary

Daily Weather History Graph

Daily Weather History Graph

Search for Another Location

Airport:

Trip Planner

Search our weather history database for the weather conditions in past years. The results will help you decide how hot, cold, wet, or windy it might be!

Date:

Astronomy

Aug. 10, 2012 Rise Set
Actual Time 6:00 AM CDT 7:55 PM CDT
Civil Twilight 5:30 AM CDT 8:25 PM CDT
Nautical Twilight 4:55 AM CDT 9:00 PM CDT
Astronomical Twilight 4:16 AM CDT 9:39 PM CDT
Moon No Moon Rise 2:35 PM CDT (8/10)
Length of Visible Light 14h 54m
Length of Day
13h 55m
Last Quarter, 41% of the Moon is Illuminated
Aug 10
Last Quarter
Aug 17
New
Aug 24
First Quarter
Aug 31
Full
Sep 8
Last Quarter

Hourly Weather History & Observations

Time (CDT) Temp. Dew Point Humidity Pressure Visibility Wind Dir Wind Speed Gust Speed Precip Events Conditions
12:04 AM 66.2 °F 64.4 °F 94% 29.83 in 8.0 mi NNW 8.1 mph - N/A   Mostly Cloudy
12:49 AM 66.2 °F 62.6 °F 88% 29.84 in 8.0 mi NNW 11.5 mph - N/A   Overcast
12:53 AM 66.0 °F 63.0 °F 90% 29.82 in 8.0 mi North 12.7 mph 19.6 mph N/A   Overcast
1:22 AM 64.4 °F 62.6 °F 94% 29.82 in 8.0 mi North 11.5 mph 19.6 mph N/A   Mostly Cloudy
1:32 AM 64.4 °F 62.6 °F 94% 29.83 in 8.0 mi North 11.5 mph - N/A   Partly Cloudy
1:53 AM 64.0 °F 62.1 °F 93% 29.82 in 7.0 mi North 12.7 mph - N/A   Scattered Clouds
2:05 AM 64.4 °F 62.6 °F 94% 29.84 in 6.0 mi North 16.1 mph 21.9 mph N/A   Mostly Cloudy
2:53 AM 64.0 °F 61.0 °F 90% 29.82 in 6.0 mi North 10.4 mph - N/A   Scattered Clouds
3:53 AM 62.1 °F 60.1 °F 93% 29.81 in 8.0 mi NNW 6.9 mph - N/A   Scattered Clouds
4:46 AM 62.6 °F 60.8 °F 94% 29.84 in 7.0 mi NNW 11.5 mph - N/A   Mostly Cloudy
4:53 AM 62.1 °F 60.1 °F 93% 29.83 in 7.0 mi NNW 12.7 mph - N/A   Mostly Cloudy
5:53 AM 62.1 °F 60.1 °F 93% 29.85 in 8.0 mi NNW 12.7 mph - N/A   Overcast
6:26 AM 62.6 °F 59.0 °F 88% 29.87 in 10.0 mi NNW 13.8 mph 24.2 mph N/A   Overcast
6:53 AM 62.1 °F 59.0 °F 90% 29.87 in 10.0 mi NNW 13.8 mph 24.2 mph N/A   Overcast
7:53 AM 63.0 °F 59.0 °F 87% 29.88 in 10.0 mi NNW 13.8 mph 23.0 mph N/A   Overcast
8:53 AM 64.9 °F 60.1 °F 84% 29.89 in 10.0 mi NNW 12.7 mph 21.9 mph N/A   Overcast
9:04 AM 66.2 °F 60.8 °F 83% 29.90 in 10.0 mi North 15.0 mph - N/A   Overcast
9:46 AM 69.8 °F 60.8 °F 73% 29.89 in 10.0 mi North 15.0 mph - N/A   Scattered Clouds
9:53 AM 70.0 °F 60.1 °F 71% 29.88 in 10.0 mi NNW 12.7 mph - N/A   Scattered Clouds
10:53 AM 72.0 °F 57.9 °F 61% 29.89 in 10.0 mi North 17.3 mph 23.0 mph N/A   Scattered Clouds
11:53 AM 73.0 °F 59.0 °F 61% 29.89 in 10.0 mi NNW 18.4 mph 25.3 mph N/A   Mostly Cloudy
12:53 PM 75.0 °F 57.9 °F 55% 29.90 in 10.0 mi NNW 10.4 mph - N/A   Mostly Cloudy
1:53 PM 73.0 °F 57.0 °F 57% 29.91 in 10.0 mi North 12.7 mph - N/A   Overcast
2:53 PM 77.0 °F 55.0 °F 47% 29.91 in 10.0 mi North 16.1 mph 24.2 mph N/A   Mostly Cloudy
3:53 PM 77.0 °F 55.9 °F 48% 29.91 in 10.0 mi NNW 16.1 mph - N/A   Overcast
4:53 PM 78.1 °F 55.0 °F 45% 29.90 in 10.0 mi NW 15.0 mph 20.7 mph N/A   Scattered Clouds
5:53 PM 78.1 °F 54.0 °F 43% 29.90 in 10.0 mi NNW 15.0 mph 23.0 mph N/A   Overcast
6:53 PM 75.0 °F 52.0 °F 44% 29.91 in 10.0 mi NNW 15.0 mph 26.5 mph N/A   Mostly Cloudy
7:53 PM 70.0 °F 51.1 °F 51% 29.94 in 10.0 mi NNW 11.5 mph - N/A   Clear
8:53 PM 66.0 °F 53.1 °F 63% 29.96 in 10.0 mi NNW 8.1 mph - N/A   Clear
9:53 PM 62.1 °F 53.1 °F 72% 29.98 in 10.0 mi North 4.6 mph - N/A   Clear
10:53 PM 57.9 °F 53.1 °F 84% 29.98 in 10.0 mi Calm Calm - N/A   Clear
11:53 PM 55.9 °F 52.0 °F 87% 29.98 in 10.0 mi NW 5.8 mph - N/A   Clear